Location: Buffign�court
(47.8126°N, 6.0176°E)
Time: 03:01:04
(UTC+00:00)

Cosmos 2360 Rocket - Pass Details

Date: 16 June 2021
Orbit: 835 x 843 km, 71.0° (Epoch: 04 August)

Event Time Altitude Azimuth Distance (km) Brightness Sun altitude
Rises 21:42:17 0° 215° (SW) 3,382 5.1 -14.3°
Reaches altitude 10° 21:44:45 10° 218° (SW) 2,451 4.4 -14.5°
Maximum altitude 21:50:20 66° 300° (WNW) 918 2.6 -14.9°
Drops below altitude 10° 21:55:57 10° 23° (NNE) 2,461 5.2 -15.3°
Sets 21:58:26 0° 27° (NNE) 3,398 6.0 -15.5°
